Weather reports worldwide

Advertisment
Oviedo, Spain (8015): temperature & dewpoint: 19.03.2019 18:00:00 - 25.03.2019 18:00:00 (CET)Oviedo, Spain (8015): wind speed: 19.03.2019 18:00:00 - 25.03.2019 18:00:00 (CET)Oviedo, Spain (8015): wind direction: 19.03.2019 18:00:00 - 25.03.2019 18:00:00 (CET)Oviedo, Spain (8015): reduced air pressure: 19.03.2019 18:00:00 - 25.03.2019 18:00:00 (CET)Oviedo, Spain (8015): visibility: 19.03.2019 18:00:00 - 25.03.2019 18:00:00 (CET)Oviedo, Spain (8015): precipitation: 19.03.2019 18:00:00 - 25.03.2019 18:00:00 (CET)
Date & Time tt [°C] td [°C] ff [km/h] ff [kn] dd ppp [hPa] vv [km] rr [mm]
25.03.2019 18:00:00 - - - - - - - -
25.03.2019 17:00:00 13,7 6,8 15 8 E 1026,6 15 0,0
25.03.2019 16:00:00 14,4 7,4 16 9 NE 1026,7 15 -
25.03.2019 15:00:00 14,9 7,0 13 7 ENE 1026,8 14 0,0
25.03.2019 14:00:00 15,3 6,6 16 9 E 1027,5 15 0,0
25.03.2019 13:00:00 14,3 7,1 11 6 E 1028,1 15 -
25.03.2019 12:00:00 13,0 7,4 13 7 E 1028,8 13 0,0
25.03.2019 11:00:00 11,6 7,5 11 6 E 1029,2 12 0,0
25.03.2019 10:00:00 11,0 8,4 9 5 E 1029,2 10 -
25.03.2019 09:00:00 10,0 7,9 11 6 E 1028,9 8 0,0
25.03.2019 08:00:00 9,5 8,3 9 5 E 1028,8 7 0,0
25.03.2019 07:00:00 9,2 7,6 8 4 E 1028,3 9 -
25.03.2019 06:00:00 9,2 7,8 8 4 ESE 1028,2 8 0,0
25.03.2019 05:00:00 9,0 7,6 8 4 E 1028,4 7 0,0
25.03.2019 04:00:00 9,0 7,8 9 5 ENE 1028,5 6 -
25.03.2019 03:00:00 9,5 8,6 5 3 ENE 1028,6 3,5 0,0
25.03.2019 02:00:00 9,9 8,7 4 2 E 1028,4 6 0,0
25.03.2019 01:00:00 9,9 8,7 4 2 ESE 1028,7 6 -
25.03.2019 00:00:00 9,8 8,9 4 2 E 1028,7 - 0,0
24.03.2019 23:00:00 9,7 8,8 8 4 NE 1029,1 4,3 0,0
24.03.2019 22:00:00 9,9 8,5 4 2 NE 1029,0 10 -
24.03.2019 21:00:00 10,5 8,9 4 2 ENE 1028,5 8 0,0
24.03.2019 20:00:00 11,2 8,4 5 3 E 1028,0 12 0,0
24.03.2019 19:00:00 12,5 7,2 11 6 ENE 1027,2 20 -
24.03.2019 18:00:00 14,1 6,4 18 10 NE 1026,0 20 0,0
24.03.2019 17:00:00 16,1 6,8 18 10 NE 1025,3 20 0,0
24.03.2019 16:00:00 16,9 8,6 18 10 NE 1025,5 20 -
24.03.2019 15:00:00 17,9 9,5 11 6 ENE 1025,5 20 0,0
24.03.2019 14:00:00 17,7 9,3 8 4 E 1026,2 20 0,0
24.03.2019 13:00:00 16,9 8,3 5 3 NE 1027,0 20 -
24.03.2019 12:00:00 15,2 6,7 8 4 E 1027,3 20 0,0
24.03.2019 11:00:00 12,6 7,5 4 2 NW 1027,7 19 0,0
24.03.2019 10:00:00 9,8 6,7 2 1 NNW 1027,8 20 -
24.03.2019 09:00:00 7,9 6,0 5 3 S 1027,7 15 0,0
24.03.2019 08:00:00 7,2 5,8 4 2 SSE 1027,3 13 0,0
24.03.2019 07:00:00 6,7 5,6 5 3 S 1026,9 12 -
24.03.2019 06:00:00 7,1 6,0 8 4 S 1027,0 9 0,0
24.03.2019 05:00:00 7,5 6,6 5 3 S 1026,7 8 0,0
24.03.2019 04:00:00 7,9 7,1 5 3 SSW 1026,3 - -
24.03.2019 03:00:00 8,3 7,4 4 2 SSW 1026,5 3,9 0,0
24.03.2019 02:00:00 8,7 7,5 2 1 WNW 1026,5 4,0 0,0
24.03.2019 01:00:00 9,4 8,0 2 1 WNW 1026,4 7 -
24.03.2019 00:00:00 9,8 7,6 2 1 N 1026,6 11 0,0
23.03.2019 23:00:00 10,4 7,5 5 3 WNW 1026,4 14 0,0
23.03.2019 22:00:00 11,0 8,7 4 2 NNE 1026,3 12 -
23.03.2019 21:00:00 12,0 8,7 8 4 ENE 1025,7 16 0,0
23.03.2019 20:00:00 13,1 8,0 8 4 E 1024,8 19 0,0
23.03.2019 19:00:00 15,4 7,9 8 4 SSE 1024,3 20 -
23.03.2019 18:00:00 17,4 7,4 11 6 ENE 1023,6 20 0,0
23.03.2019 17:00:00 19,5 7,9 9 5 ENE 1023,3 20 0,0
23.03.2019 16:00:00 20,0 7,0 8 4 ENE 1023,3 20 -
23.03.2019 15:00:00 19,7 6,4 11 6 ENE 1023,8 20 0,0
23.03.2019 14:00:00 19,4 7,8 9 5 E 1024,5 20 0,0
23.03.2019 13:00:00 18,0 3,8 8 4 ENE 1025,4 20 -
23.03.2019 12:00:00 16,6 6,4 5 3 E 1026,1 20 0,0
23.03.2019 11:00:00 13,7 5,3 5 3 SE 1026,9 20 0,0
23.03.2019 10:00:00 9,5 4,9 5 3 SE 1028,0 20 -
23.03.2019 09:00:00 6,8 3,8 4 2 S 1028,1 19 0,0
23.03.2019 08:00:00 5,7 3,2 8 4 S 1028,0 20 0,0
23.03.2019 07:00:00 5,6 3,3 9 5 S 1027,8 20 -
23.03.2019 06:00:00 5,9 3,4 8 4 S 1027,7 19 0,0
23.03.2019 05:00:00 6,2 3,5 9 5 S 1027,8 19 0,0
23.03.2019 04:00:00 6,9 3,7 8 4 S 1028,0 19 -
23.03.2019 03:00:00 7,1 3,9 8 4 S 1028,5 18 0,0
23.03.2019 02:00:00 7,7 4,1 9 5 S 1028,4 18 0,0
23.03.2019 01:00:00 8,5 4,1 5 3 S 1028,1 19 -
23.03.2019 00:00:00 9,2 4,0 8 4 SSW 1028,2 20 0,0
22.03.2019 23:00:00 10,6 3,8 4 2 W 1028,5 20 0,0
22.03.2019 22:00:00 11,2 4,6 2 1 NW 1028,3 20 -
22.03.2019 21:00:00 11,5 4,7 2 1 ESE 1027,8 20 0,0
22.03.2019 20:00:00 12,8 4,5 5 3 E 1027,2 20 0,0
22.03.2019 19:00:00 14,4 4,9 15 8 NE 1026,4 25 -
22.03.2019 18:00:00 16,3 5,6 11 6 ENE 1025,6 20 0,0
22.03.2019 17:00:00 17,4 5,3 13 7 ENE 1025,4 20 0,0
22.03.2019 16:00:00 18,0 5,6 13 7 NE 1025,5 25 -
22.03.2019 15:00:00 18,2 5,1 13 7 NE 1025,5 20 0,0
22.03.2019 14:00:00 18,1 4,6 11 6 ENE 1025,8 20 0,0
22.03.2019 13:00:00 17,6 6,1 11 6 ENE 1026,3 25 -
22.03.2019 12:00:00 15,6 3,7 4 2 NNE 1026,8 20 0,0
22.03.2019 11:00:00 12,8 6,8 2 1 NW 1027,1 20 0,0
22.03.2019 10:00:00 8,6 5,2 2 1 SSW 1027,5 20 -
22.03.2019 09:00:00 5,4 4,0 5 3 S 1027,7 17 0,0
22.03.2019 08:00:00 3,9 3,0 8 4 S 1027,7 14 0,0
22.03.2019 07:00:00 4,2 3,3 11 6 S 1027,3 10 -
22.03.2019 06:00:00 4,4 3,8 9 5 S 1026,9 8 0,0
22.03.2019 05:00:00 4,2 3,6 8 4 S 1026,9 - 0,0
22.03.2019 04:00:00 4,6 3,9 5 3 S 1027,2 7 -
22.03.2019 03:00:00 4,9 3,9 5 3 S 1027,2 11 0,0
22.03.2019 02:00:00 5,6 4,4 4 2 SW 1027,2 13 0,0
22.03.2019 01:00:00 6,0 4,6 4 2 SW 1027,5 13 -
22.03.2019 00:00:00 6,9 5,0 5 3 SE 1027,5 13 0,0
21.03.2019 23:00:00 7,8 5,4 8 4 E 1027,8 16 0,0
21.03.2019 22:00:00 8,3 5,4 5 3 E 1027,6 18 -
21.03.2019 21:00:00 9,1 5,5 8 4 NE 1027,6 19 0,0
21.03.2019 20:00:00 9,9 4,9 8 4 ENE 1027,4 19 0,0
21.03.2019 19:00:00 11,2 4,2 11 6 NE 1026,7 20 -
21.03.2019 18:00:00 13,0 4,4 16 9 NE 1026,4 20 0,0
21.03.2019 17:00:00 13,9 5,0 16 9 NE 1026,7 20 0,0
21.03.2019 16:00:00 14,0 4,8 16 9 NE 1027,3 20 -
21.03.2019 15:00:00 14,9 4,3 13 7 NE 1027,8 20 0,0
21.03.2019 14:00:00 14,2 3,9 11 6 NE 1028,8 20 0,0
21.03.2019 13:00:00 14,4 4,4 9 5 E 1029,5 20 -
21.03.2019 12:00:00 13,5 4,6 13 7 E 1030,0 20 0,0
21.03.2019 11:00:00 10,2 4,3 5 3 ENE 1030,7 20 0,0
21.03.2019 10:00:00 7,1 4,4 4 2 E 1031,2 19 -
21.03.2019 09:00:00 4,6 3,7 5 3 SSE 1031,9 10 0,0
21.03.2019 08:00:00 3,5 2,9 5 3 S 1032,0 9 0,0
21.03.2019 07:00:00 3,5 2,9 5 3 SSE 1032,0 12 -
21.03.2019 06:00:00 3,6 2,7 5 3 S 1032,0 10 0,0
21.03.2019 05:00:00 4,4 3,2 4 2 WNW 1031,7 16 0,0
21.03.2019 04:00:00 4,5 3,2 4 2 W 1031,8 14 -
21.03.2019 03:00:00 4,7 3,2 2 1 W 1031,9 17 0,0
21.03.2019 02:00:00 5,4 3,2 4 2 ENE 1031,7 19 0,0
21.03.2019 01:00:00 5,8 3,5 9 5 E 1031,9 20 -
21.03.2019 00:00:00 6,2 3,5 9 5 E 1032,1 20 0,0
20.03.2019 23:00:00 6,9 3,7 9 5 E 1032,1 20 0,0
20.03.2019 22:00:00 7,5 3,9 13 7 E 1032,1 20 -
20.03.2019 21:00:00 8,2 4,4 9 5 E 1032,0 20 0,0
20.03.2019 20:00:00 9,0 4,4 11 6 ENE 1031,5 20 0,0
20.03.2019 19:00:00 10,4 5,0 11 6 E 1031,2 20 -
20.03.2019 18:00:00 11,5 5,4 13 7 ENE 1030,7 20 0,0
20.03.2019 17:00:00 13,2 5,8 13 7 ENE 1030,2 20 0,0
20.03.2019 16:00:00 12,4 6,4 21 11 NE 1030,5 20 -
20.03.2019 15:00:00 14,2 6,5 13 7 ENE 1030,5 20 0,0
20.03.2019 14:00:00 13,8 5,4 9 5 E 1031,2 20 0,0
20.03.2019 13:00:00 12,1 5,9 9 5 E 1032,4 20 -
20.03.2019 12:00:00 11,6 5,9 11 6 ESE 1033,0 20 0,0
20.03.2019 11:00:00 9,8 7,4 9 5 E 1033,3 20 0,0
20.03.2019 10:00:00 9,1 7,2 9 5 E 1033,4 20 -
20.03.2019 09:00:00 7,3 7,2 5 3 E 1033,5 3,2 0,0
20.03.2019 08:00:00 7,2 7,2 5 3 NE 1032,8 10 0,0
20.03.2019 07:00:00 7,0 7,0 2 1 E 1032,2 2,0 -
20.03.2019 06:00:00 7,2 7,2 2 1 SE 1032,3 1,8 0,0
20.03.2019 05:00:00 6,9 6,9 2 1 E 1032,4 0,3 0,0
20.03.2019 04:00:00 7,1 7,1 4 2 E 1032,6 0,3 -
20.03.2019 03:00:00 7,1 7,1 2 1 ESE 1033,0 4,0 0,0
20.03.2019 02:00:00 7,4 7,3 4 2 S 1033,3 0,1 0,0
20.03.2019 01:00:00 7,6 7,3 2 1 SE 1033,6 6 -
20.03.2019 00:00:00 7,6 7,5 5 3 ESE 1033,8 6 0,0
19.03.2019 23:00:00 7,5 7,4 2 1 S 1033,6 1,8 0,0
19.03.2019 22:00:00 7,6 7,3 4 2 W 1033,3 2,0 -
19.03.2019 21:00:00 7,9 7,3 0 0 N 1032,9 17 0,0
19.03.2019 20:00:00 8,1 7,7 2 1 S 1032,4 12 0,0
19.03.2019 19:00:00 8,6 8,3 4 2 SSW 1032,1 8 -
19.03.2019 18:00:00 8,2 7,3 2 1 WNW 1031,7 9 0,2

tt = temperature
td = dewpoint
ff = wind speed
dd = wind direction
ppp = reduced air pressure
vv = visibility
rr = precipitation

Next stations